Time,TemperatureF,DewpointF,PressureIn,WindDirection,WindDirectionDegrees,WindSpeedMPH,WindSpeedGustMPH,Humidity,HourlyPrecipIn,Conditions,Clouds,dailyrainin,SoftwareType,DateUTC
2013-02-02 00:06:00,12.4,5.0,30.39,West,273,6.0,10.0,71,0.00,,,0.00,weatherlink.com 1.10,2013-02-02 05:06:00,
2013-02-02 00:21:00,12.4,5.0,30.39,SW,226,7.0,8.0,73,0.00,,,0.00,weatherlink.com 1.10,2013-02-02 05:21:00,
2013-02-02 00:36:00,12.1,4.0,30.39,SSW,204,4.0,6.0,71,0.00,,,0.00,weatherlink.com 1.10,2013-02-02 05:36:00,
2013-02-02 00:51:00,12.0,5.0,30.38,West,278,5.0,10.0,72,0.00,,,0.00,weatherlink.com 1.10,2013-02-02 05:51:00,
2013-02-02 01:06:00,12.1,4.0,30.38,West,281,4.0,12.0,71,0.00,,,0.00,weatherlink.com 1.10,2013-02-02 06:06:00,
2013-02-02 01:21:00,12.2,5.0,30.38,WSW,245,2.0,10.0,73,0.00,,,0.00,weatherlink.com 1.10,2013-02-02 06:21:00,
2013-02-02 01:36:00,12.5,6.0,30.37,West,264,5.0,7.0,74,0.00,,,0.00,weatherlink.com 1.10,2013-02-02 06:36:00,
2013-02-02 01:51:00,12.6,5.0,30.37,West,273,3.0,12.0,72,0.00,,,0.00,weatherlink.com 1.10,2013-02-02 06:51:00,
2013-02-02 02:06:00,12.8,6.0,30.37,SW,226,4.0,10.0,73,0.00,,,0.00,weatherlink.com 1.10,2013-02-02 07:06:00,
2013-02-02 02:21:00,12.8,5.0,30.37,West,275,4.0,8.0,72,0.00,,,0.00,weatherlink.com 1.10,2013-02-02 07:21:00,
2013-02-02 02:36:00,12.9,6.0,30.36,SSW,207,4.0,7.0,73,0.00,,,0.00,weatherlink.com 1.10,2013-02-02 07:36:00,
2013-02-02 02:51:00,12.7,5.0,30.36,SSW,205,3.0,6.0,71,0.00,,,0.00,weatherlink.com 1.10,2013-02-02 07:51:00,
2013-02-02 03:06:00,11.9,5.0,30.36,South,189,2.0,8.0,73,0.00,,,0.00,weatherlink.com 1.10,2013-02-02 08:06:00,
2013-02-02 03:21:00,11.6,5.0,30.35,SSW,195,3.0,6.0,73,0.00,,,0.00,weatherlink.com 1.10,2013-02-02 08:21:00,
2013-02-02 03:36:00,11.5,5.0,30.35,SSW,205,4.0,7.0,75,0.00,,,0.00,weatherlink.com 1.10,2013-02-02 08:36:00,
2013-02-02 03:51:00,11.0,4.0,30.35,SW,218,4.0,8.0,74,0.00,,,0.00,weatherlink.com 1.10,2013-02-02 08:51:00,
2013-02-02 04:06:00,10.9,5.0,30.35,South,172,2.0,6.0,76,0.00,,,0.00,weatherlink.com 1.10,2013-02-02 09:06:00,
2013-02-02 04:21:00,10.9,4.0,30.35,SSW,201,2.0,7.0,75,0.00,,,0.00,weatherlink.com 1.10,2013-02-02 09:21:00,
2013-02-02 04:36:00,10.6,4.0,30.34,SSW,210,2.0,8.0,75,0.00,,,0.00,weatherlink.com 1.10,2013-02-02 09:36:00,
2013-02-02 04:51:00,10.6,4.0,30.34,SW,224,2.0,5.0,76,0.00,,,0.00,weatherlink.com 1.10,2013-02-02 09:51:00,
2013-02-02 05:06:00,10.6,5.0,30.34,SSW,205,6.0,8.0,77,0.00,,,0.00,weatherlink.com 1.10,2013-02-02 10:06:00,
2013-02-02 05:21:00,10.5,5.0,30.34,WSW,240,4.0,7.0,77,0.00,,,0.00,weatherlink.com 1.10,2013-02-02 10:21:00,
2013-02-02 05:36:00,10.6,4.0,30.33,SW,219,3.0,8.0,75,0.00,,,0.00,weatherlink.com 1.10,2013-02-02 10:36:00,
2013-02-02 05:51:00,10.7,5.0,30.33,South,191,5.0,8.0,76,0.00,,,0.00,weatherlink.com 1.10,2013-02-02 10:51:00,
2013-02-02 06:06:00,10.8,4.0,30.32,South,190,3.0,7.0,75,0.00,,,0.00,weatherlink.com 1.10,2013-02-02 11:06:00,
2013-02-02 06:21:00,10.9,4.0,30.32,SW,236,4.0,8.0,75,0.00,,,0.00,weatherlink.com 1.10,2013-02-02 11:21:00,
2013-02-02 06:36:00,11.1,5.0,30.32,SSW,203,7.0,10.0,75,0.00,,,0.00,weatherlink.com 1.10,2013-02-02 11:36:00,
2013-02-02 06:52:00,11.3,5.0,30.32,South,187,4.0,9.0,76,0.00,,,0.00,weatherlink.com 1.10,2013-02-02 11:52:00,
2013-02-02 07:07:00,11.4,5.0,30.32,SW,217,7.0,8.0,75,0.00,,,0.00,weatherlink.com 1.10,2013-02-02 12:07:00,
2013-02-02 07:22:00,11.6,5.0,30.32,SW,225,6.0,8.0,74,0.00,,,0.00,weatherlink.com 1.10,2013-02-02 12:22:00,
2013-02-02 07:37:00,11.6,5.0,30.31,South,176,3.0,10.0,74,0.00,,,0.00,weatherlink.com 1.10,2013-02-02 12:37:00,
2013-02-02 07:52:00,12.0,6.0,30.31,SW,222,3.0,8.0,75,0.00,,,0.00,weatherlink.com 1.10,2013-02-02 12:52:00,
2013-02-02 08:07:00,12.2,6.0,30.30,South,187,3.0,7.0,75,0.00,,,0.00,weatherlink.com 1.10,2013-02-02 13:07:00,
2013-02-02 08:22:00,12.5,5.0,30.30,WSW,246,1.0,8.0,73,0.00,,,0.00,weatherlink.com 1.10,2013-02-02 13:22:00,
2013-02-02 08:37:00,13.0,6.0,30.30,SSW,209,2.0,6.0,73,0.00,,,0.00,weatherlink.com 1.10,2013-02-02 13:37:00,
2013-02-02 08:52:00,13.6,7.0,30.29,SSE,153,1.0,8.0,74,0.00,,,0.00,weatherlink.com 1.10,2013-02-02 13:52:00,
2013-02-02 09:07:00,14.2,7.0,30.29,WSW,245,3.0,6.0,72,0.00,,,0.00,weatherlink.com 1.10,2013-02-02 14:07:00,
2013-02-02 09:22:00,14.4,7.0,30.28,WNW,302,2.0,9.0,71,0.00,,,0.00,weatherlink.com 1.10,2013-02-02 14:22:00,
2013-02-02 09:37:00,14.7,8.0,30.28,WSW,239,6.0,9.0,74,0.00,,,0.00,weatherlink.com 1.10,2013-02-02 14:37:00,
2013-02-02 09:52:00,15.2,9.0,30.26,SW,215,5.0,11.0,75,0.00,,,0.00,weatherlink.com 1.10,2013-02-02 14:52:00,
2013-02-02 10:07:00,15.8,9.0,30.26,SW,225,6.0,12.0,74,0.00,,,0.00,weatherlink.com 1.10,2013-02-02 15:07:00,
2013-02-02 10:22:00,15.6,10.0,30.25,SW,228,8.0,12.0,77,0.00,,,0.00,weatherlink.com 1.10,2013-02-02 15:22:00,
2013-02-02 10:37:00,16.0,11.0,30.25,WSW,252,1.0,10.0,80,0.00,,,0.00,weatherlink.com 1.10,2013-02-02 15:37:00,
2013-02-02 10:52:00,16.2,11.0,30.24,South,171,8.0,8.0,81,0.00,,,0.00,weatherlink.com 1.10,2013-02-02 15:52:00,
2013-02-02 11:07:00,16.5,12.0,30.23,SW,221,1.0,7.0,82,0.00,,,0.00,weatherlink.com 1.10,2013-02-02 16:07:00,
2013-02-02 11:22:00,17.2,13.0,30.22,WSW,252,4.0,7.0,82,0.00,,,0.00,weatherlink.com 1.10,2013-02-02 16:22:00,
2013-02-02 11:37:00,17.9,13.0,30.21,SW,221,2.0,6.0,82,0.00,,,0.00,weatherlink.com 1.10,2013-02-02 16:37:00,
2013-02-02 11:52:00,18.8,13.0,30.19,SSW,201,8.0,12.0,78,0.00,,,0.00,weatherlink.com 1.10,2013-02-02 16:52:00,
2013-02-02 12:07:00,19.8,14.0,30.18,South,170,2.0,11.0,77,0.00,,,0.00,weatherlink.com 1.10,2013-02-02 17:07:00,
2013-02-02 12:22:00,20.3,14.0,30.16,SW,225,3.0,18.0,75,0.00,,,0.00,weatherlink.com 1.10,2013-02-02 17:22:00,
2013-02-02 12:37:00,20.5,14.0,30.15,SW,225,7.0,16.0,75,0.00,,,0.00,weatherlink.com 1.10,2013-02-02 17:37:00,
2013-02-02 12:52:00,21.1,15.0,30.13,SSW,211,1.0,13.0,76,0.00,,,0.00,weatherlink.com 1.10,2013-02-02 17:52:00,
2013-02-02 13:08:00,21.4,15.0,30.13,NNE,13,0.0,10.0,76,0.00,,,0.00,weatherlink.com 1.10,2013-02-02 18:08:00,
2013-02-02 13:23:00,21.6,15.0,30.11,SSE,162,1.0,12.0,76,0.00,,,0.00,weatherlink.com 1.10,2013-02-02 18:23:00,
2013-02-02 13:38:00,21.9,16.0,30.10,NW,305,2.0,8.0,78,0.00,,,0.00,weatherlink.com 1.10,2013-02-02 18:38:00,
2013-02-02 13:53:00,21.7,17.0,30.09,SE,126,7.0,9.0,81,0.00,,,0.00,weatherlink.com 1.10,2013-02-02 18:53:00,
2013-02-02 14:08:00,22.1,17.0,30.08,SW,225,3.0,5.0,81,0.00,,,0.00,weatherlink.com 1.10,2013-02-02 19:08:00,
2013-02-02 14:23:00,22.9,17.0,30.07,South,191,1.0,8.0,78,0.00,,,0.00,weatherlink.com 1.10,2013-02-02 19:23:00,
2013-02-02 14:38:00,23.4,18.0,30.07,WSW,243,4.0,6.0,78,0.00,,,0.00,weatherlink.com 1.10,2013-02-02 19:38:00,
2013-02-02 14:53:00,23.4,18.0,30.06,SW,236,2.0,8.0,79,0.00,,,0.00,weatherlink.com 1.10,2013-02-02 19:53:00,
2013-02-02 15:08:00,23.4,18.0,30.07,SW,229,1.0,6.0,81,0.00,,,0.00,weatherlink.com 1.10,2013-02-02 20:08:00,
2013-02-02 15:23:00,23.4,19.0,30.06,WSW,238,3.0,5.0,82,0.00,,,0.00,weatherlink.com 1.10,2013-02-02 20:23:00,
2013-02-02 15:38:00,23.4,19.0,30.05,ESE,115,1.0,6.0,83,0.00,,,0.00,weatherlink.com 1.10,2013-02-02 20:38:00,
2013-02-02 15:53:00,23.3,19.0,30.05,SSE,158,0.0,7.0,83,0.00,,,0.00,weatherlink.com 1.10,2013-02-02 20:53:00,
2013-02-02 16:08:00,23.3,19.0,30.05,SSW,209,4.0,8.0,84,0.00,,,0.00,weatherlink.com 1.10,2013-02-02 21:08:00,
2013-02-02 16:23:00,23.4,20.0,30.05,SW,221,4.0,6.0,85,0.00,,,0.00,weatherlink.com 1.10,2013-02-02 21:23:00,
2013-02-02 16:38:00,23.5,20.0,30.05,SW,223,2.0,5.0,87,0.00,,,0.00,weatherlink.com 1.10,2013-02-02 21:38:00,
2013-02-02 16:53:00,23.7,20.0,30.04,West,274,3.0,5.0,86,0.00,,,0.00,weatherlink.com 1.10,2013-02-02 21:53:00,
2013-02-02 17:08:00,23.9,20.0,30.05,WSW,246,1.0,6.0,86,0.00,,,0.00,weatherlink.com 1.10,2013-02-02 22:08:00,
2013-02-02 17:23:00,23.9,20.0,30.04,West,262,4.0,6.0,85,0.00,,,0.00,weatherlink.com 1.10,2013-02-02 22:23:00,
2013-02-02 17:38:00,24.0,20.0,30.05,SE,134,3.0,4.0,86,0.00,,,0.00,weatherlink.com 1.10,2013-02-02 22:38:00,
2013-02-02 17:53:00,23.9,20.0,30.05,SW,231,3.0,5.0,86,0.00,,,0.00,weatherlink.com 1.10,2013-02-02 22:53:00,
2013-02-02 18:08:00,23.9,21.0,30.05,SW,214,1.0,5.0,87,0.00,,,0.00,weatherlink.com 1.10,2013-02-02 23:08:00,
2013-02-02 18:23:00,23.7,21.0,30.05,SW,214,1.0,5.0,88,0.00,,,0.00,weatherlink.com 1.10,2013-02-02 23:23:00,
2013-02-02 18:38:00,23.7,21.0,30.05,SW,221,1.0,3.0,89,0.00,,,0.00,weatherlink.com 1.10,2013-02-02 23:38:00,
2013-02-02 18:53:00,23.8,21.0,30.05,WSW,243,1.0,5.0,88,0.00,,,0.00,weatherlink.com 1.10,2013-02-02 23:53:00,
2013-02-02 19:08:00,23.9,21.0,30.05,SW,236,1.0,4.0,89,0.00,,,0.00,weatherlink.com 1.10,2013-02-03 00:08:00,
2013-02-02 19:23:00,23.9,21.0,30.05,SSW,208,2.0,3.0,89,0.00,,,0.00,weatherlink.com 1.10,2013-02-03 00:23:00,
2013-02-02 19:38:00,23.9,21.0,30.05,SW,232,3.0,6.0,89,0.00,,,0.00,weatherlink.com 1.10,2013-02-03 00:38:00,
2013-02-02 19:53:00,24.0,21.0,30.05,West,263,2.0,4.0,89,0.00,,,0.00,weatherlink.com 1.10,2013-02-03 00:53:00,
2013-02-02 20:08:00,24.1,21.0,30.05,SSW,201,2.0,4.0,89,0.00,,,0.00,weatherlink.com 1.10,2013-02-03 01:08:00,
2013-02-02 20:23:00,24.0,21.0,30.05,SW,228,2.0,4.0,89,0.00,,,0.00,weatherlink.com 1.10,2013-02-03 01:23:00,
2013-02-02 20:38:00,24.2,22.0,30.05,SSE,157,0.0,3.0,89,0.00,,,0.00,weatherlink.com 1.10,2013-02-03 01:38:00,
2013-02-02 20:53:00,24.2,22.0,30.05,SSW,210,2.0,4.0,89,0.00,,,0.00,weatherlink.com 1.10,2013-02-03 01:53:00,
2013-02-02 21:08:00,24.4,21.0,30.05,SW,228,4.0,4.0,88,0.00,,,0.00,weatherlink.com 1.10,2013-02-03 02:08:00,
2013-02-02 21:23:00,24.6,21.0,30.05,WSW,252,3.0,4.0,87,0.00,,,0.00,weatherlink.com 1.10,2013-02-03 02:23:00,
2013-02-02 21:38:00,24.7,21.0,30.05,SW,235,2.0,6.0,87,0.00,,,0.00,weatherlink.com 1.10,2013-02-03 02:38:00,
2013-02-02 21:53:00,24.8,22.0,30.04,WSW,257,2.0,5.0,87,0.00,,,0.00,weatherlink.com 1.10,2013-02-03 02:53:00,
2013-02-02 22:08:00,25.0,22.0,30.04,West,280,3.0,5.0,87,0.00,,,0.00,weatherlink.com 1.10,2013-02-03 03:08:00,
2013-02-02 22:23:00,25.1,22.0,30.03,SW,228,0.0,7.0,86,0.00,,,0.00,weatherlink.com 1.10,2013-02-03 03:23:00,
2013-02-02 22:38:00,25.1,22.0,30.03,WSW,249,1.0,5.0,86,0.00,,,0.00,weatherlink.com 1.10,2013-02-03 03:38:00,
2013-02-02 22:53:00,25.0,21.0,30.03,WSW,257,3.0,5.0,85,0.00,,,0.00,weatherlink.com 1.10,2013-02-03 03:53:00,
2013-02-02 23:09:00,25.2,22.0,30.03,WSW,257,2.0,4.0,86,0.00,,,0.00,weatherlink.com 1.10,2013-02-03 04:09:00,
2013-02-02 23:24:00,25.3,22.0,30.03,West,269,4.0,4.0,86,0.00,,,0.00,weatherlink.com 1.10,2013-02-03 04:24:00,
2013-02-02 23:39:00,25.3,22.0,30.03,WNW,284,2.0,4.0,86,0.00,,,0.00,weatherlink.com 1.10,2013-02-03 04:39:00,
2013-02-02 23:54:00,25.3,21.0,30.03,WSW,250,4.0,5.0,85,0.00,,,0.00,weatherlink.com 1.10,2013-02-03 04:54:00,